Tracking 18840 objects as of 17-November-2017
HD Live streaming from Space Station
objects crossing your sky now

FENGYUN 1C DEB

Track FENGYUN 1C DEB now!
10-day predictions


NORAD ID: 31513
Int'l Code: 1999-025BXC
Perigee: 829.0 km
Apogee: 880.2 km
Inclination: 99.0 °
Period: 101.9 minutes
Semi major axis: 7225 km
RCS: 0.0086 m2 (small)
Launch date: May 10, 1999
Source: People's Republic of China (PRC)
Launch site: Taiyaun Space Center, China (TSC)

Note: This is SATELLITE DEBRIS
aabbcc
Your satellite tracking list
Your tracking list is empty




NASA's NSSDC Master Catalog

Two Line Element Set (TLE):
1 31513U 99025BXC 17320.92271333 +.00000941 +00000-0 +52114-3 0  9991
2 31513 098.9926 001.2974 0035398 258.4232 101.2965 14.13491561310839
Source of the keplerian elements: AFSPC